Evansville, IN

7:28 PM CDT on May 20, 2018 (GMT -0500)
Evansville Regional

Weather History for KEVV - October, 2013

Change the Weather History Date:

Thursday, October 3, 2013

  Actual Average Record
Temperature  
Mean Temperature 77 °F 62 °F  
Max Temperature 85 °F 75 °F 91 °F (1900)
Min Temperature 69 °F 49 °F 31 °F (1974)
Degree Days  
Heating Degree Days 0 5  
Month to date heating degree days 0 15  
Since 1 July heating degree days 10 62  
Cooling Degree Days 12 2  
Month to date cooling degree days 31 6  
Year to date cooling degree days 1438 1372  
Growing Degree Days 25 (Base 50)    
Moisture  
Dew Point 66 °F    
Average Humidity 73    
Maximum Humidity 97    
Minimum Humidity 48    
Precipitation  
Precipitation 0.01 in 0.10 in 1.76 in (1902)
Month to date precipitation 0.98 0.31  
Year to date precipitation 39.12 34.28  
Snow  
Snow 0.00 in 0.00 in 0.00 in (2002)
Month to date snowfall 0.0 0.0  
Since 1 July snowfall 0.0 0.0  
Since 1 September snowfall 0.0 0.0  
Snow Depth 0.00 in    
Sea Level Pressure  
Sea Level Pressure 30.02 in    
Wind  
Wind Speed 4 mph (South)    
Max Wind Speed 16 mph    
Max Gust Speed 21 mph    
Visibility 8 miles    
Events Rain    
T = Trace of Precipitation, MM = Missing Value Source: NWS Daily Summary

Daily Weather History Graph

Daily Weather History Graph

Search for Another Location

Airport or City:

Astronomy

Oct. 03, 2013 Rise Set
Actual Time 6:47 AM CDT 6:29 PM CDT
Civil Twilight 6:21 AM CDT 6:55 PM CDT
Nautical Twilight 5:51 AM CDT 7:26 PM CDT
Astronomical Twilight 5:20 AM CDT 7:57 PM CDT
Moon 5:21 AM CDT (10/3) 5:37 PM CDT (10/3)
Length of Visible Light 12h 34m
Length of Day
11h 41m
Waning Crescent, 2% of the Moon is Illuminated
Oct 3
Waning Crescent
Oct 4
New
Oct 11
First Quarter
Oct 18
Full
Oct 26
Last Quarter

Hourly Weather History & Observations

Time (CDT) Temp. Heat Index Dew Point Humidity Pressure Visibility Wind Dir Wind Speed Gust Speed Precip Events Conditions
12:54 AM 69.1 °F - 66.9 °F 93% 30.04 in 7.0 mi SSE 3.5 mph - N/A   Clear
1:54 AM 69.1 °F - 66.9 °F 93% 30.04 in 5.0 mi Calm Calm - N/A   Partly Cloudy
2:54 AM 70.0 °F - 68.0 °F 93% 30.03 in 7.0 mi SSE 3.5 mph - 0.00 in   Overcast
3:54 AM 70.0 °F - 68.0 °F 93% 30.03 in 5.0 mi Calm Calm - N/A   Overcast
4:54 AM 70.0 °F - 68.0 °F 93% 30.04 in 6.0 mi Calm Calm - N/A   Overcast
5:54 AM 70.0 °F - 68.0 °F 93% 30.05 in 4.0 mi Calm Calm - 0.00 in Rain Light Rain
6:54 AM 70.0 °F - 68.0 °F 93% 30.06 in 7.0 mi Calm Calm - 0.01 in   Overcast
7:54 AM 71.1 °F - 68.0 °F 90% 30.06 in 6.0 mi Calm Calm - N/A   Overcast
8:54 AM 72.0 °F - 69.1 °F 91% 30.08 in 8.0 mi Calm Calm - N/A   Overcast
9:54 AM 75.9 °F - 69.1 °F 79% 30.07 in 10.0 mi SSW 6.9 mph - 0.00 in   Scattered Clouds
10:54 AM 79.0 °F - 68.0 °F 69% 30.05 in 10.0 mi SSW 9.2 mph - N/A   Clear
11:54 AM 81.0 °F 83.0 °F 66.0 °F 60% 30.05 in 10.0 mi SSW 6.9 mph 16.1 mph N/A   Clear
12:54 PM 82.9 °F 85.0 °F 66.0 °F 56% 30.02 in 10.0 mi South 12.7 mph 16.1 mph N/A   Scattered Clouds
1:54 PM 84.0 °F 85.8 °F 64.9 °F 53% 30.00 in 10.0 mi SSW 9.2 mph - N/A   Partly Cloudy
2:54 PM 84.0 °F 84.9 °F 63.0 °F 49% 29.98 in 10.0 mi South 12.7 mph 20.7 mph N/A   Clear
3:54 PM 84.0 °F 84.9 °F 63.0 °F 49% 29.97 in 10.0 mi SSE 10.4 mph - N/A   Scattered Clouds
4:54 PM 82.0 °F 83.1 °F 63.0 °F 52% 29.97 in 10.0 mi South 8.1 mph 17.3 mph N/A   Mostly Cloudy
5:54 PM 81.0 °F 82.2 °F 63.0 °F 54% 29.97 in 10.0 mi South 5.8 mph - N/A   Clear
6:54 PM 78.1 °F - 63.0 °F 60% 29.98 in 10.0 mi South 5.8 mph - N/A   Clear
7:54 PM 73.9 °F - 63.0 °F 68% 29.99 in 10.0 mi Calm Calm - N/A   Clear
8:54 PM 75.0 °F - 64.0 °F 69% 30.00 in 10.0 mi South 5.8 mph - N/A   Clear
9:54 PM 73.9 °F - 64.0 °F 71% 30.01 in 10.0 mi South 4.6 mph - N/A   Mostly Cloudy
11:54 PM 72.0 °F - 64.0 °F 76% 30.01 in 10.0 mi SSE 4.6 mph - N/A   Clear